Home   Weather   Darwin   Past weeks
Flag for Australia

Past Weather in Darwin, Northern Territory, Australia — Yesterday and Last 2 Weeks

Now
81 °F

Broken clouds.


Feels Like: 86 °F
Forecast: 91 / 85 °F
Wind: 3 mph from Northwest

Location: Darwin Airport

Current Time: Mar 23, 2019 at 8:32:15 am

Latest Report: Mar 23, 2019 at 8:00 am


Visibility: N/A

Pressure: 29.71 "Hg

Humidity: 84%

Dew Point: 75 °F

Location of DarwinLocation

Past Weather in Darwin — Graph

°F

Darwin Temperature Yesterday

Maximum temperature yesterday: 86 °F (at 12:00 am)
Minimum temperature yesterday: 72 °F (at 10:00 am)
Average temperature yesterday: 82 °F

High & Low Weather Summary for the Past Weeks

 TemperatureHumidityPressure
High95 °F (Mar 9, 3:00 pm)100% (Mar 9, 5:38 pm)29.89 "Hg (Mar 9, 5:38 pm)
Low72 °F (Mar 8, 8:30 pm)39% (Mar 9, 3:00 pm)29.65 "Hg (Mar 22, 5:00 pm)
Average84 °F77%29.78 "Hg
* Reported Mar 8 6:30 am — Mar 23 7:00 am, Darwin. Weather by CustomWeather, © 2019

Note: Actual official high and low records may vary slightly from our data, if they occured in-between our weather recording intervals... More about our weather records

Advertising

Darwin Weather History for the Previous 24 Hours

Scroll right to see more
 ConditionsComfort  
Time TempWeatherWind HumidityBarometerVisibility
7:00 am
Sat, Mar 23
79 °FPassing clouds.2 mph89%29.68 "HgN/A
6:30 am79 °FPartly cloudy.5 mph89%29.68 "HgN/A
6:00 am79 °FLight rain. Clear.7 mph84%29.68 "HgN/A
5:30 am77 °FClear.3 mph94%29.68 "Hg10 mi
5:00 am77 °FClear.3 mph94%29.65 "Hg10 mi
4:30 am77 °FClear.No wind94%29.65 "Hg10 mi
4:00 am77 °FClear.No wind94%29.68 "Hg10 mi
3:30 am77 °FPassing clouds.3 mph94%29.71 "HgN/A
3:00 am77 °FOvercast.5 mph94%29.68 "HgN/A
2:30 am79 °FClear.No wind89%29.68 "Hg10 mi
2:00 am79 °FPassing clouds.5 mph89%29.71 "HgN/A
1:30 am79 °FPartly cloudy.8 mph89%29.74 "HgN/A
1:00 am77 °FPassing clouds.6 mph89%29.77 "HgN/A
12:30 am77 °FPartly cloudy.7 mph89%29.74 "HgN/A
12:00 am77 °FPassing clouds.3 mph89%29.74 "HgN/A
11:30 pm
Fri, Mar 22
77 °FThundershowers. Partly cloudy.6 mph89%29.74 "HgN/A
11:00 pm75 °FRain showers. Partly cloudy.17 mph94%29.74 "Hg4 mi
10:40 pm79 °FScattered showers. Partly cloudy.22 mph79%29.77 "HgN/A
10:30 pm84 °FScattered showers. Passing clouds.10 mph84%29.74 "HgN/A
10:00 pm84 °FPassing clouds.10 mph84%29.74 "HgN/A
9:30 pm84 °FClear.10 mph84%29.71 "Hg10 mi
9:00 pm84 °FPassing clouds.14 mph79%29.71 "HgN/A
8:30 pm84 °FPassing clouds.13 mph79%29.71 "HgN/A
8:00 pm84 °FPassing clouds.12 mph79%29.71 "HgN/A
7:30 pm82 °FPassing clouds.10 mph79%29.68 "HgN/A
7:00 pm82 °FSunny.12 mph79%29.68 "Hg10 mi
6:30 pm82 °FSunny.10 mph74%29.68 "Hg10 mi
6:00 pm82 °FSunny.12 mph79%29.68 "Hg10 mi
5:30 pm84 °FPassing clouds.14 mph70%29.65 "HgN/A
5:00 pm84 °FPassing clouds.14 mph74%29.65 "HgN/A
4:30 pm84 °FScattered clouds.15 mph70%29.68 "HgN/A
4:00 pm84 °FPartly sunny.14 mph74%29.68 "HgN/A
3:30 pm82 °FBroken clouds.16 mph84%29.68 "HgN/A
3:00 pm82 °FBroken clouds.15 mph79%29.71 "HgN/A
2:30 pm82 °FBroken clouds.15 mph79%29.71 "HgN/A
2:00 pm82 °FBroken clouds.13 mph74%29.74 "HgN/A
1:30 pm82 °FPartly sunny.14 mph70%29.74 "HgN/A
1:00 pm82 °FBroken clouds.9 mph74%29.77 "HgN/A
12:30 pm81 °FMore clouds than sun.9 mph79%29.77 "HgN/A
12:00 pm77 °FOvercast.7 mph94%29.77 "HgN/A
11:30 am75 °FMore clouds than sun.8 mph94%29.80 "HgN/A
11:00 am73 °FLight rain. Broken clouds.7 mph100%29.80 "HgN/A
10:00 am72 °FThunderstorms. Partly sunny.14 mph100%29.83 "Hg4 mi
9:30 am73 °FThunderstorms. Broken clouds.14 mph94%29.83 "Hg2 mi
9:00 am73 °FStrong thunderstorms. Partly sunny.28 mph94%29.83 "Hg1 mi
8:47 am73 °FStrong thunderstorms. Partly sunny.33 mph94%29.83 "Hg1 mi
8:33 am75 °FStrong thunderstorms. Scattered clouds.13 mph94%29.83 "Hg1 mi
8:00 am86 °FScattered showers. Partly sunny.7 mph75%29.77 "HgN/A
Weather by CustomWeather, © 2019

See weather overview